Location: Roland
(31.1349°N, 85.4372°W)
Time: 15:13:53
(UTC+00:00)

Hubble Space Telescope - Visible Passes

Search period start: 08 March 2021 00:00
Search period end: 18 March 2021 00:00
Orbit: 535 x 539 km, 28.5° (Epoch: 08 March)

Date Brightness Start Highest point End Pass type
(mag) Time Alt. Az. Time Alt. Az. Time Alt. Az.
08 Mar 1.1 00:45:02 10° WSW 00:49:03 54° S 00:51:03 27° ESE visible
08 Mar 3.9 02:26:04 10° W 02:26:23 12° W 02:26:23 12° W visible
09 Mar 1.0 00:34:08 10° WSW 00:38:11 58° S 00:40:53 20° ESE visible
09 Mar 3.5 02:15:12 10° W 02:16:12 17° W 02:16:12 17° W visible
10 Mar 1.0 00:23:15 10° WSW 00:27:18 60° S 00:30:42 14° E visible
10 Mar 3.0 02:04:22 10° W 02:06:01 22° WSW 02:06:01 22° WSW visible
11 Mar 1.1 00:12:22 10° W 00:16:26 60° S 00:20:29 10° E visible
11 Mar 2.5 01:53:33 10° W 01:55:50 28° WSW 01:55:50 28° WSW visible
12 Mar 2.2 01:42:45 10° W 01:45:40 31° SW 01:45:40 31° SW visible
13 Mar 2.1 01:32:00 10° WSW 01:35:32 29° SSW 01:35:32 29° SSW visible
14 Mar 2.3 01:21:17 10° WSW 01:24:39 25° SSW 01:25:26 23° S visible
15 Mar 2.7 01:10:38 10° WSW 01:13:42 20° SSW 01:15:24 16° S visible
16 Mar 3.1 01:00:07 10° WSW 01:02:45 17° SSW 01:05:23 10° SSE visible
17 Mar 3.3 00:49:49 10° SW 00:51:48 13° SSW 00:53:46 10° S visible
